Home   Weather   Opfikon   Past weeks

Flag for Switzerland Past Weather in Opfikon, Zurich, Switzerland — Yesterday and Last 2 Weeks

Now
41 °F

Quite cool.


Feels Like: 41 °F
Forecast: 42 / 58 °F
Wind: 2 mph from Southwest

Location: Zuerich-Fluntern

Current Time: Apr 24, 2017 at 9:53:45 am

Latest Report: Apr 24, 2017 at 9:00 am


Visibility: N/A

Pressure: 30.12 "Hg

Humidity: 63%

Dew Point: 29 °F

Location of OpfikonLocation

Past Weather in Opfikon — Graph

°F

Opfikon Temperature Yesterday

Maximum temperature yesterday: 56 °F (at 6:00 pm)
Minimum temperature yesterday: 41 °F (at 6:00 am)
Average temperature yesterday: 47 °F

High & Low Weather Summary for the Past Weeks

 TemperatureHumidityPressure
High73 °F (Apr 9, 5:00 pm)96% (Apr 19, 2:00 pm)30.57 "Hg (Apr 19, 2:00 pm)
Low28 °F (Apr 20, 6:00 am)26% (Apr 9, 5:00 pm)29.93 "Hg (Apr 13, 6:00 pm)
Average48 °F62%30.20 "Hg
* Reported Apr 9 8:00 am — Apr 24 8:00 am, Opfikon, Weather by CustomWeather, © 2017

Note: Actual official high and low records may vary slightly from our data, if they occured in-between our weather recording intervals... More about our weather records

Advertising

Opfikon Weather History for the Previous 24 Hours

Scroll right to see more
 ConditionsComfort  
Time TempWeatherWind HumidityBarometerVisibility
8:00 am
Mon, Apr 24
38 °FSunny.3 mph68%30.14 "HgN/A
7:00 am34 °FChilly.1 mph76%30.15 "HgN/A
6:00 am35 °FChilly.1 mph74%30.15 "HgN/A
5:00 am37 °FChilly.6 mph67%30.15 "HgN/A
4:00 am38 °FChilly.9 mph63%30.16 "HgN/A
3:00 am40 °FChilly.12 mph59%30.16 "HgN/A
2:00 am41 °FQuite cool.10 mph57%30.18 "HgN/A
1:00 am42 °FQuite cool.10 mph57%30.19 "HgN/A
12:00 am44 °FQuite cool.10 mph57%30.19 "HgN/A
11:00 pm
Sun, Apr 23
46 °FCool.8 mph53%30.19 "HgN/A
10:00 pm47 °FCool.7 mph52%30.19 "HgN/A
9:00 pm48 °FCool.5 mph49%30.17 "HgN/A
8:00 pm51 °FPassing clouds.3 mph42%30.15 "HgN/A
7:00 pm55 °FCool.2 mph38%30.14 "HgN/A
6:00 pm56 °FRefreshingly cool.6 mph37%30.14 "HgN/A
5:00 pm55 °FCool.5 mph41%30.14 "HgN/A
4:00 pm54 °FCool.5 mph39%30.16 "HgN/A
3:00 pm54 °FCool.5 mph43%30.18 "HgN/A
2:00 pm51 °FScattered clouds.6 mph45%30.21 "HgN/A
1:00 pm48 °FCool.3 mph52%30.23 "HgN/A
12:00 pm47 °FCool.2 mph52%30.24 "HgN/A
11:00 am45 °FCool.3 mph58%30.25 "HgN/A
10:00 am46 °FCool.6 mph56%30.25 "HgN/A
9:00 am43 °FQuite cool.5 mph64%30.26 "HgN/A
Weather by CustomWeather, © 2017

See weather overviewHow to use our weather pages